Westminster, MD

3:59 PM EDT on April 27, 2017 (GMT -0400)
Carroll County Regional-Poage

Weather History for KDMW - September, 2013

Change the Weather History Date:

Wednesday, September 4, 2013

  Actual Average (KTHV) Record (KTHV)
Temperature  
Mean Temperature 68 °F -  
Max Temperature 80 °F 0 °F 91 °F (2015)
Min Temperature 57 °F - 44 °F (1997)
Cooling Degree Days 4    
Growing Degree Days 18 (Base 50)    
Moisture  
Dew Point 51 °F    
Average Humidity 56    
Maximum Humidity 82    
Minimum Humidity 21    
Precipitation  
Precipitation 0.03 in - - ()
Sea Level Pressure  
Sea Level Pressure 30.06 in    
Wind  
Wind Speed 2 mph (West)    
Max Wind Speed 10 mph    
Max Gust Speed -    
Visibility 10 miles    
Events      
Averages and records for this station are not official NWS values.
T = Trace of Precipitation, MM = Missing Value Source: NWS Daily Summary

Daily Weather History Graph

Daily Weather History Graph

Search for Another Location

Airport or City:

Trip Planner

Search our weather history database for the weather conditions in past years. The results will help you decide how hot, cold, wet, or windy it might be!

Date:

Astronomy

Sep. 04, 2013 Rise Set
Actual Time 6:39 AM EDT 7:33 PM EDT
Civil Twilight 6:11 AM EDT 8:01 PM EDT
Nautical Twilight 5:39 AM EDT 8:33 PM EDT
Astronomical Twilight 5:05 AM EDT 9:07 PM EDT
Moon 5:49 AM EDT (9/4) 6:52 PM EDT (9/4)
Length of Visible Light 13h 49m
Length of Day
12h 54m
Waning Crescent, 1% of the Moon is Illuminated
Sep 4
Waning Crescent
Sep 5
New
Sep 12
First Quarter
Sep 19
Full
Sep 26
Last Quarter

Hourly Weather History & Observations

Time (EDT) Temp. Dew Point Humidity Pressure Visibility Wind Dir Wind Speed Gust Speed Precip Events Conditions
12:05 AM 66.2 °F 55.4 °F 68% 29.99 in 10.0 mi Calm Calm - N/A   Clear
12:25 AM 64.4 °F 53.6 °F 68% 30.00 in 10.0 mi Calm Calm - N/A   Clear
12:45 AM 64.4 °F 53.6 °F 68% 30.00 in 10.0 mi Calm Calm - N/A   Clear
1:05 AM 64.4 °F 53.6 °F 68% 30.00 in 10.0 mi Calm Calm - N/A   Clear
1:25 AM 64.4 °F 53.6 °F 68% 30.00 in 10.0 mi Calm Calm - N/A   Clear
1:45 AM 64.4 °F 53.6 °F 68% 30.00 in 10.0 mi Calm Calm - N/A   Clear
2:05 AM 62.6 °F 53.6 °F 72% 30.01 in 10.0 mi Calm Calm - N/A   Clear
2:25 AM 62.6 °F 53.6 °F 72% 30.01 in 10.0 mi Calm Calm - N/A   Clear
2:45 AM 62.6 °F 53.6 °F 72% 30.01 in 10.0 mi Calm Calm - N/A   Clear
3:05 AM 62.6 °F 51.8 °F 68% 30.01 in 10.0 mi Calm Calm - N/A   Clear
3:25 AM 62.6 °F 51.8 °F 68% 30.02 in 10.0 mi Calm Calm - N/A   Clear
3:45 AM 62.6 °F 51.8 °F 68% 30.03 in 10.0 mi Calm Calm - N/A   Clear
4:05 AM 60.8 °F 51.8 °F 72% 30.03 in 10.0 mi Calm Calm - N/A   Clear
4:25 AM 60.8 °F 53.6 °F 77% 30.03 in 10.0 mi Calm Calm - N/A   Clear
4:45 AM 59.0 °F 51.8 °F 77% 30.04 in 10.0 mi Calm Calm - N/A   Clear
5:05 AM 59.0 °F 51.8 °F 77% 30.04 in 10.0 mi Calm Calm - N/A   Clear
5:25 AM 59.0 °F 53.6 °F 82% 30.04 in 10.0 mi Calm Calm - N/A   Clear
5:45 AM 59.0 °F 53.6 °F 82% 30.05 in 10.0 mi Calm Calm - N/A   Clear
6:05 AM 57.2 °F 51.8 °F 82% 30.06 in 10.0 mi Calm Calm - N/A   Clear
6:25 AM 59.0 °F 53.6 °F 82% 30.06 in 10.0 mi Calm Calm - N/A   Clear
6:45 AM 59.0 °F 53.6 °F 82% 30.07 in 10.0 mi Calm Calm - N/A   Clear
7:05 AM 59.0 °F 53.6 °F 82% 30.08 in 10.0 mi Calm Calm - N/A   Clear
7:25 AM 59.0 °F 53.6 °F 82% 30.08 in 10.0 mi Calm Calm - N/A   Clear
7:45 AM 60.8 °F 53.6 °F 77% 30.09 in 10.0 mi Calm Calm - N/A   Clear
8:05 AM 62.6 °F 55.4 °F 77% 30.10 in 10.0 mi Calm Calm - N/A   Clear
8:25 AM 62.6 °F 55.4 °F 77% 30.10 in 10.0 mi Calm Calm - N/A   Clear
8:45 AM 62.6 °F 55.4 °F 77% 30.10 in 10.0 mi Calm Calm - N/A   Clear
9:05 AM 64.4 °F 53.6 °F 68% 30.10 in 10.0 mi Calm Calm - N/A   Clear
9:25 AM 64.4 °F 53.6 °F 68% 30.10 in 10.0 mi Calm Calm - N/A   Clear
9:45 AM 66.2 °F 53.6 °F 64% 30.11 in 10.0 mi NW 3.5 mph - N/A   Clear
10:05 AM 66.2 °F 53.6 °F 64% 30.10 in 10.0 mi Calm Calm - N/A   Clear
10:25 AM 68.0 °F 53.6 °F 60% 30.11 in 10.0 mi Calm Calm - N/A   Clear
10:50 AM 69.8 °F 55.4 °F 60% 30.11 in 10.0 mi Calm Calm - N/A   Clear
11:10 AM 69.8 °F 51.8 °F 53% 30.11 in 10.0 mi Calm Calm - N/A   Clear
11:30 AM 71.6 °F 48.2 °F 43% 30.11 in 10.0 mi Calm Calm - N/A   Clear
11:50 AM 71.6 °F 48.2 °F 43% 30.11 in 10.0 mi North - - N/A   Clear
12:10 PM 73.4 °F 50.0 °F 44% 30.10 in 10.0 mi North - - N/A   Clear
12:30 PM 73.4 °F 50.0 °F 44% 30.10 in - WNW 5.8 mph - 0.03 in   Clear
12:45 PM 75.2 °F 50.0 °F 41% 30.09 in 10.0 mi WNW 9.2 mph - N/A   Unknown
1:10 PM 75.2 °F 48.2 °F 38% 30.08 in 10.0 mi Calm Calm - N/A   Unknown
1:30 PM - - N/A% 30.08 in - North - - N/A   Unknown
1:50 PM 78.8 °F 48.2 °F 34% 30.08 in 10.0 mi WNW 10.4 mph - N/A   Unknown
2:10 PM - - N/A% 30.08 in - WNW 5.8 mph - N/A   Unknown
2:30 PM 78.8 °F 42.8 °F 28% 30.07 in 10.0 mi West 8.1 mph - N/A   Unknown
2:50 PM 78.8 °F 46.4 °F 32% 30.06 in 10.0 mi WNW 5.8 mph - N/A   Clear
3:10 PM 80.6 °F 48.2 °F 32% 30.06 in 10.0 mi West 8.1 mph - N/A   Clear
3:30 PM 80.6 °F 44.6 °F 28% 30.05 in 10.0 mi West 4.6 mph - N/A   Clear
3:50 PM 80.6 °F 42.8 °F 26% 30.05 in 10.0 mi West 4.6 mph - N/A   Clear
4:10 PM 80.6 °F 37.4 °F 21% 30.05 in 10.0 mi WSW 6.9 mph - N/A   Clear
4:30 PM 80.6 °F 42.8 °F 26% 30.05 in 10.0 mi West 9.2 mph - N/A   Clear
4:50 PM 80.6 °F 46.4 °F 30% 30.05 in 10.0 mi SW 9.2 mph - N/A   Clear
5:10 PM 80.6 °F 44.6 °F 28% 30.04 in 10.0 mi West 10.4 mph - N/A   Clear
5:30 PM 80.6 °F 46.4 °F 30% 30.04 in 10.0 mi WSW 9.2 mph - N/A   Clear
5:50 PM 80.6 °F 48.2 °F 32% 30.04 in 10.0 mi WSW 8.1 mph - N/A   Clear
6:10 PM 78.8 °F 50.0 °F 36% 30.04 in 10.0 mi SW 9.2 mph - N/A   Clear
6:30 PM 78.8 °F 48.2 °F 34% 30.04 in 10.0 mi WSW 9.2 mph - N/A   Clear
6:50 PM 78.8 °F 46.4 °F 32% 30.05 in 10.0 mi WSW 6.9 mph - N/A   Clear
7:10 PM 75.2 °F 46.4 °F 36% 30.05 in 10.0 mi WSW 4.6 mph - N/A   Clear
7:30 PM 75.2 °F 46.4 °F 36% 30.04 in 10.0 mi SW 3.5 mph - N/A   Clear
7:50 PM 73.4 °F 48.2 °F 41% 30.05 in 10.0 mi SW 3.5 mph - N/A   Clear
8:10 PM 73.4 °F 51.8 °F 47% 30.04 in 10.0 mi SW 4.6 mph - N/A   Clear
8:30 PM 71.6 °F 51.8 °F 50% 30.05 in 10.0 mi SW 4.6 mph - N/A   Clear
8:50 PM 71.6 °F 51.8 °F 50% 30.05 in 10.0 mi SSW 3.5 mph - N/A   Clear
9:10 PM 71.6 °F 51.8 °F 50% 30.06 in 10.0 mi Calm Calm - N/A   Clear
9:30 PM 69.8 °F 51.8 °F 53% 30.06 in 10.0 mi WSW 3.5 mph - N/A   Clear
9:50 PM 71.6 °F 51.8 °F 50% 30.06 in 10.0 mi WSW 4.6 mph - N/A   Clear
10:10 PM 71.6 °F 53.6 °F 53% 30.06 in 10.0 mi West 5.8 mph - N/A   Clear
10:30 PM 71.6 °F 53.6 °F 53% 30.07 in 10.0 mi West 4.6 mph - N/A   Clear
10:50 PM 69.8 °F 53.6 °F 56% 30.08 in 10.0 mi WNW 4.6 mph - N/A   Clear
11:10 PM 68.0 °F 53.6 °F 60% 30.08 in 10.0 mi WNW 4.6 mph - N/A   Clear
11:30 PM 69.8 °F 53.6 °F 56% 30.08 in 10.0 mi WNW 4.6 mph - N/A   Clear
11:50 PM 69.8 °F 53.6 °F 56% 30.08 in 10.0 mi WNW 4.6 mph - N/A   Clear